Regional Weather Roundup
Issued by NWS

Home | Current Version | Previous Version | Graphics & Text | Print | Product List | Glossary On
Versions: 1 2 3 4 5 6 7 8 9 10 11 12 13 14 15 16 17 18 19 20 21 22 23 24 25 26 27 28 29 30 31 32 33 34 35 36 37 38 39 40 41 42 43 44 45 46 47 48 49 50
000
ASUS45 KPSR 280300
RWRAZ

PRELIMINARY ARIZONA REGIONAL HOURLY WEATHER ROUNDUP
NATIONAL WEATHER SERVICE PHOENIX AZ
800 PM MST SUN JUL 27 2014

NOTE: FAIR INDICATES FEW OR NO CLOUDS BELOW 12,000 FEET WITH NO
SIGNIFICANT WEATHER AND/OR OBSTRUCTIONS TO VISIBILITY.

AZZ001>003-036-280400-
NORTHWEST ARIZONA

CITY           SKY/WX    TMP DP  RH WIND       PRES   REMARKS
KINGMAN        MOCLDY    86  54  33 CALM      30.08S HAZE
$$

AZZ004>008-015-016-018-280400-
NORTH CENTRAL ARIZONA

CITY           SKY/WX    TMP DP  RH WIND       PRES   REMARKS
GRAND CANYON   LGT RAIN  64  55  72 E9        30.40R
WILLIAMS       CLOUDY    66  54  63 E8        30.40R
PRESCOTT       MOCLDY    82  49  31 SW13      30.20R
FLAGSTAFF      CLOUDY    66  47  50 E10       30.40R
PAGE           CLOUDY    87  51  28 NW6       30.10R
$$

AZZ009>014-017-280400-
NORTHEAST ARIZONA

CITY           SKY/WX    TMP DP  RH WIND       PRES   REMARKS
WINSLOW        NOT AVBL
SAINT JOHNS    CLOUDY    72  51  47 W8        30.28F
WINDOW ROCK    CLOUDY    65  52  62 NE20G26   30.41F
$$

AZZ023-280400-
GREATER PHOENIX AREA

CITY           SKY/WX    TMP DP  RH WIND       PRES   REMARKS
PHOENIX        MOCLDY    99  55  23 W10       29.89R
LUKE AFB       NOT AVBL
DEER VALLEY    PTCLDY    95  55  26 SW8       29.92R
SCOTTSDALE     PTCLDY    96  55  25 SW7       29.93R
MESA-FALCON    MOCLDY    95  55  26 W7        29.91R
MESA-GATEWAY     N/A    N/A N/A N/A MISG        N/A
$$

AZZ027-028-280400-
SOUTHWEST MARICOPA COUNTY AND PINAL COUNTY

CITY           SKY/WX    TMP DP  RH WIND       PRES   REMARKS
CASA GRANDE    PTCLDY    95  57  28 W8        29.94R
$$

AZZ503-504-507>509-280400-
SOUTHEAST ARIZONA

CITY           SKY/WX    TMP DP  RH WIND       PRES   REMARKS
TUCSON         MOCLDY    94  56  27 NW7       30.03R
DAVIS-MONTHAN  CLOUDY    92  58  31 N12       30.02R
RYAN FIELD       N/A     93  57  29 NW7       30.01R
NOGALES        PTCLDY    85  60  42 SW6       30.12R
SIERRA VISTA   MOCLDY    82  58  43 NW13      30.19R THUNDER
SAFFORD        RAIN      71  65  81 N14       30.15F
$$

AZZ020-021-025-026-031-280400-
SOUTHWEST ARIZONA

CITY           SKY/WX    TMP DP  RH WIND       PRES   REMARKS
YUMA           CLEAR     96  62  32 W7        29.85R
$$

CAZ031-033-041-043-047-048-061-280400-
SOUTHERN CALIFORNIA

CITY           SKY/WX    TMP DP  RH WIND       PRES   REMARKS
DOWNTOWN L.A.  CLEAR     76  58  53 W5        29.92S
L.A. AIRPORT   MOCLDY    70  64  81 W15       29.93F
SAN DIEGO      MOCLDY    73  65  75 W7        29.96R
BURBANK        CLEAR     81  52  36 VRB5      29.94R
ONTARIO        MOCLDY    90  52  27 W9        29.92S
RIVERSIDE      MOCLDY    89  53  29 W9        29.92R
PALM SPRINGS   MOCLDY    97  63  32 CALM      29.85R
EL CENTRO NAS  PTCLDY    95  61  32 SE8       29.82R
IMPERIAL       PTCLDY    97  61  30 SE5       29.82R
BLYTHE           N/A    N/A N/A N/A MISG      29.84R
$$

NVZ020-UTZ003-280400-
SOUTHERN NEVADA-UTAH

CITY           SKY/WX    TMP DP  RH WIND       PRES   REMARKS
LAS VEGAS      NOT AVBL
SALT LAKE CITY MOCLDY    86  45  23 CALM      30.07R
$$

NMZ009-TXZ055-280400-
NEW MEXICO-WEST TEXAS

CITY           SKY/WX    TMP DP  RH WIND       PRES   REMARKS
ALBUQUERQUE    PTCLDY    74  54  49 N13       30.25S
EL PASO        MOCLDY    93  49  22 SW9       30.05R
$$


........................KEY........................
SKY/WX - SKY CONDITION/WEATHER
TMP    - TEMPERATURE IN FAHRENHEIT
DP     - DEW POINT IN FAHRENHEIT
RH     - RELATIVE HUMIDITY IN PERCENT
WIND   - DIRECTION AND SPEED IN MILES PER HOUR (MPH)
VRB    - VARIABLE WIND DIRECTION
PRES   - MEAN SEA LEVEL PRESSURE IN INCHES OF MERCURY
         F - FALLING PRESSURE   R - RISING PRESSURE
         S - STEADY PRESSURE
VSB    - VISIBILITY IN MILES
HX     - HEAT INDEX IN FAHRENHEIT
WCI    - WIND CHILL INDEX IN FAHRENHEIT
TC     - TEMPERATURE IN CELSIUS WHICH IS ALSO KNOWN AS
         TEMPERATURE IN CENTIGRADE
AFB    - AIR FORCE BASE
         LUKE AFB IS LUKE AIR FORCE BASE
         DAVIS-MONTHAN IS DAVIS-MONTHAN AIR FORCE BASE
NAS    - NAVAL AIR STATION
         EL CENTRO NAS IS EL CENTRO NAVAL AIR STATION
N/A    - NOT AVAILABLE


USA.gov is the U.S. government's official web portal to all federal, state and local government web resources and services.